sat.trackr.live / text

‹ back to catalog

STARLINK-3604

NORAD 51815 · 2022-017AZ

PAYLOAD ACTIVE UNKNOWN

§ Identity

Operator
Country
US
Launch date
2022-02-25
Launch site
AFWTR
Launch vehicle
Mass (kg)
RCS (m²)

Purposes: comms

External: N2YO · Heavens-Above · Gunter

§ Orbital elements

Epoch: 2026-05-24T22:35:34.190016Z

Period
95.44 min
Inclination
53.2137°
Eccentricity
0.0001492
Mean motion
15.08841324 rev/d
Perigee alt
538.7 km
Apogee alt
540.8 km
Semi-major
6,917.9 km
B*
2.5041e-7
RAAN
346.8134°
Arg perigee
94.7947°
Mean anomaly
265.3216°
Rev number
23,559

§ Raw data

STARLINK-36041 51815U 22017AZ  26144.94136794 -.00000284  00000+0  25041-6 0  99942 51815  53.2137 346.8134 0001492  94.7947 265.3216 15.08841324235593

JSON: /api/v1/satellites/51815 · /tle

For live sub-satellite position, see the globe view (requires WebGL).

§ Visibility from observer

Set your observer location to see the next 7 days of passes ≥ 10°. The values pass through the URL so the page stays shareable.

No JS? Fill the form by hand. The geolocation button needs JavaScript.